[[{"header":{"parameterUnit":"m.s-1","parameterCategory":1,"la1":30.2991,"la2":30.254,"lo1":-89.0895,"lo2":-89.0444,"dy":0.0017,"dx":0.0017,"nx":28,"ny":28,"refTime":"2023-09-12T21:00:00:Z","depth":0,"parameterNumber":2,"parameterNumberName":"U-component_of_WINDS"},"data":[0,0,0,0,0,0,0,0,0,0,0,0,0,0,0,0,0,0,0,0,0,0,0,0,0,0,0,0,0,0,0,0,0,0,0,0,0,0,0,0,0,0,0,0,0,0,0,0,0,0,0,0,0,0,0,0,0,0,1.4669,1.4669,0,1.4692,1.4692,1.4692,1.4673,1.4672,1.4671,1.467,1.4692,1.4693,1.4694,0,0,0,0,0,0,0,0,0,0,0,0,0,1.4605,1.4607,1.4669,1.4669,1.4669,1.4692,1.4692,1.4692,1.4673,1.4672,1.4671,1.467,1.4691,1.4693,1.4694,0,0,0,0,0,0,0,0,0,0,0,0,0,1.4631,1.4607,1.4669,1.4662,1.4662,1.4692,1.4692,1.4692,1.4673,1.4672,1.467,1.4669,1.4691,1.4693,1.4695,1.4731,0,0,1.4701,1.4702,0,0,0,0,0,0,0,0,1.463,1.4633,1.4663,1.4663,1.4663,1.4678,1.4677,1.4705,1.4673,1.4669,1.467,1.4669,1.4688,1.469,1.4697,1.4732,1.4733,1.4701,1.4702,1.4703,1.4704,0,0,0,0,0,0,0,1.4628,1.4632,1.4678,1.4663,1.4663,1.4657,1.466,1.4683,1.4685,1.4669,1.4668,1.4671,1.4688,1.4695,1.4697,1.4733,1.4701,1.4703,1.4704,1.4705,1.4797,1.4798,0,0,0,0,0,0,1.4627,1.4631,1.4677,1.4678,1.4643,1.4659,1.4662,1.4674,1.4685,1.4685,1.4672,1.467,1.4692,1.4695,1.4698,1.474,1.4703,1.4705,1.4706,1.4796,1.4797,1.4799,0,0,0,0,0,0,1.4626,1.4631,1.4676,1.4654,1.466,1.4662,1.4676,1.4675,1.4683,1.4687,1.4687,1.4679,1.4692,1.4695,1.4723,1.474,1.4706,1.4708,1.4794,1.4796,1.4798,1.4824,0,0,0,0,0,0,1.4624,1.4631,1.4646,1.4655,1.4661,1.4701,1.4677,1.4677,1.4687,1.4684,1.4694,1.4694,1.4691,1.472,1.4725,1.4742,1.4709,1.4793,1.4795,1.4798,1.4822,1.4827,1.4831,0,0,0,0,0,1.4622,1.4652,1.4647,1.4652,1.4679,1.4702,1.4706,1.4702,1.4688,1.4702,1.4704,1.4694,1.4738,1.4723,1.4728,1.4747,1.4792,1.4795,1.4797,1.482,1.4826,1.4831,0,0,0,0,0,0,1.4645,1.4653,1.4647,1.4682,1.4691,1.4699,1.4717,1.4709,1.4723,1.472,1.4714,1.4716,1.4745,1.4749,1.4732,1.4781,1.4762,1.4766,1.4778,1.4783,1.4788,1.4786,1.4711,0,0,0,0,0,1.4654,1.4673,1.4679,1.4709,1.4714,1.4715,1.4725,1.4721,1.473,1.4734,1.4739,1.4748,1.4763,1.4774,1.4789,1.4823,1.4823,1.4838,1.4843,1.4846,1.4849,1.4866,1.4872,1.4808,1.4808,1.4808,0,0,1.4673,1.468,1.4692,1.4713,1.4721,1.4739,1.4718,1.4739,1.4752,1.4737,1.4763,1.4766,1.4776,1.4806,1.482,1.4811,1.4867,1.485,1.4853,1.4854,1.4869,1.4875,1.488,1.481,1.481,1.4809,0,0,1.4716,1.4725,1.4749,1.4757,1.4768,1.4768,1.4774,1.4782,1.4784,1.481,1.4798,1.4814,1.4842,1.4848,1.4855,1.49,1.489,1.4905,1.4929,1.4945,1.495,1.4954,1.4968,1.4973,1.4909,1.4909,1.4909,0,1.4738,1.4766,1.4763,1.4784,1.4792,1.478,1.4804,1.4812,1.4827,1.4833,1.4822,1.4856,1.4862,1.4892,1.4903,1.491,1.4915,1.4903,1.4949,1.4954,1.4958,1.4971,1.4976,1.491,1.491,1.491,1.491,0,1.4791,1.4811,1.4829,1.4844,1.4855,1.4878,1.4876,1.4888,1.4883,1.4884,1.4909,1.4916,1.4931,1.4938,1.4934,1.4968,1.4961,1.495,1.4931,1.4965,1.4978,1.4983,1.4913,1.4912,1.4911,1.4911,0,0,1.485,1.4862,1.4868,1.4874,1.4885,1.4899,1.4921,1.4935,1.4944,1.4955,1.4972,1.4995,1.4985,1.4993,1.4989,1.5003,1.5035,1.499,1.499,1.4997,1.5071,1.5078,1.5084,1.503,1.5031,1.5031,1.507,0,1.4892,1.4929,1.4926,1.4961,1.4977,1.4966,1.4984,1.4992,1.4993,1.5007,1.5008,1.5023,1.5009,1.5014,1.5028,1.5029,1.505,1.5026,1.5043,1.5044,1.5039,1.5091,1.5098,1.5134,1.5075,1.5075,1.5076,0,1.4946,1.4958,1.4995,1.5001,1.5008,1.5025,1.5037,1.5051,1.5059,1.5059,1.5068,1.5061,1.5081,1.5062,1.5089,1.5072,1.5079,1.5081,1.5082,1.5082,1.5061,1.509,1.5146,1.515,1.5084,1.5083,1.5083,0,1.4982,1.5008,1.5033,1.5038,1.5047,1.5059,1.5063,1.507,1.5079,1.509,1.5095,1.5108,1.5115,1.5125,1.5121,1.5108,1.5148,1.5129,1.5146,1.5146,1.5154,1.5153,1.5209,1.5162,1.5162,1.5161,1.5161,0,1.5029,1.5051,1.5049,1.5064,1.5088,1.5083,1.5107,1.511,1.5116,1.513,1.5121,1.5135,1.513,1.5143,1.5141,1.5162,1.5166,1.5165,1.5164,1.5165,1.5165,1.5168,1.5165,1.5163,1.5163,1.5162,1.5162,0,1.5073,1.5072,1.5098,1.5104,1.5106,1.5123,1.5128,1.5142,1.5142,1.516,1.5164,1.5164,1.5179,1.5177,1.5194,1.5192,1.5217,1.5214,1.5215,1.5213,1.523,1.5228,1.5289,1.5296,1.5245,1.5246,1.5246,0,1.5101,1.5118,1.5126,1.5135,1.514,1.5155,1.5163,1.516,1.5169,1.5179,1.519,1.5204,1.5215,1.5239,1.524,1.5252,1.5248,1.5268,1.5249,1.5249,1.5246,1.5244,1.5245,1.5271,1.5272,1.5273,1.5273,0,1.5152,1.515,1.5163,1.5176,1.5186,1.5196,1.5205,1.5213,1.521,1.522,1.5235,1.5243,1.526,1.5273,1.5284,1.5288,1.5279,1.5279,1.5283,1.5284,1.5282,1.5281,1.5223,1.5277,1.5277,1.5277,1.5276,1.5276,1.5187,1.5201,1.5208,1.5222,1.5228,1.5237,1.5249,1.5251,1.5263,1.5276,1.5273,1.529,1.5296,1.531,1.5315,1.5327,1.5319,1.5326,1.5327,1.5328,1.5329,1.5282,1.5329,1.5329,1.5329,1.5329,1.5329,0,1.5235,1.5239,1.5253,1.5265,1.5276,1.5268,1.5277,1.5286,1.53,1.5307,1.5318,1.5334,1.5347,1.5349,1.5361,1.537,1.5366,1.5373,1.5371,1.5372,1.5337,1.5331,1.5375,1.5375,1.5375,1.5375,1.5375,1.5375,1.5262,1.5283,1.5283,1.5307,1.5311,1.5326,1.5332,1.5339,1.5344,1.5363,1.5373,1.5375,1.5379,1.5391,1.5402,1.5402,1.5406,1.5414,1.5412,1.5379,1.5374,1.537,1.5364,1.5415,1.5415,1.5446,1.5446,1.5446]},{"header":{"parameterUnit":"m.s-1","parameterCategory":1,"la1":30.2991,"la2":30.254,"lo1":-89.0895,"lo2":-89.0444,"dy":0.0017,"dx":0.0017,"nx":28,"ny":28,"refTime":"2023-09-12T21:00:00:Z","depth":0,"parameterNumber":3,"parameterNumberName":"V-component_of_WINDS"},"data":[0,0,0,0,0,0,0,0,0,0,0,0,0,0,0,0,0,0,0,0,0,0,0,0,0,0,0,0,0,0,0,0,0,0,0,0,0,0,0,0,0,0,0,0,0,0,0,0,0,0,0,0,0,0,0,0,0,0,3.3518,3.3518,0,3.3494,3.3494,3.3494,3.3433,3.3432,3.3431,3.343,3.3404,3.3405,3.3405,0,0,0,0,0,0,0,0,0,0,0,0,0,3.3512,3.3513,3.3519,3.3518,3.3518,3.3494,3.3494,3.3493,3.3434,3.3432,3.3431,3.3429,3.3404,3.3405,3.3405,0,0,0,0,0,0,0,0,0,0,0,0,0,3.3504,3.3513,3.3519,3.3485,3.3482,3.3494,3.3494,3.3493,3.3434,3.3432,3.343,3.3428,3.3404,3.3405,3.3406,3.3448,0,0,3.3408,3.3408,0,0,0,0,0,0,0,0,3.3505,3.3504,3.349,3.3488,3.3484,3.3465,3.3482,3.3478,3.3434,3.3452,3.343,3.3428,3.3426,3.3425,3.3424,3.3447,3.3446,3.3408,3.3408,3.3409,3.3409,0,0,0,0,0,0,0,3.3505,3.3505,3.3509,3.349,3.3486,3.3471,3.3468,3.3481,3.345,3.3451,3.3446,3.3444,3.3424,3.3424,3.3423,3.3445,3.3408,3.3409,3.3409,3.3409,3.3499,3.3501,0,0,0,0,0,0,3.3511,3.3506,3.351,3.3508,3.349,3.3473,3.3469,3.3473,3.345,3.3444,3.3446,3.3441,3.3424,3.3423,3.3422,3.3468,3.3409,3.3409,3.341,3.3497,3.3499,3.3501,0,0,0,0,0,0,3.3511,3.3512,3.3511,3.3506,3.3504,3.3475,3.348,3.3473,3.3473,3.3446,3.344,3.3451,3.3422,3.3421,3.3442,3.3467,3.341,3.341,3.3495,3.3498,3.35,3.3563,0,0,0,0,0,0,3.3511,3.3512,3.3528,3.3507,3.3505,3.3531,3.3481,3.3474,3.3475,3.3469,3.345,3.3445,3.342,3.3441,3.3442,3.3467,3.3411,3.3492,3.3496,3.3499,3.3558,3.3567,3.3575,0,0,0,0,0,3.3511,3.3547,3.3529,3.353,3.3525,3.3532,3.3531,3.3503,3.3477,3.3493,3.3475,3.3445,3.3464,3.3443,3.3445,3.347,3.3491,3.3495,3.3499,3.3554,3.3565,3.3575,0,0,0,0,0,0,3.3573,3.3544,3.3524,3.3554,3.3546,3.3522,3.3541,3.3516,3.3515,3.3509,3.3474,3.347,3.3494,3.3484,3.3462,3.3508,3.3472,3.3477,3.3514,3.3524,3.3533,3.3534,3.3412,0,0,0,0,0,3.359,3.3599,3.3573,3.3602,3.3599,3.3571,3.3574,3.3552,3.3542,3.3538,3.3522,3.3514,3.3517,3.3521,3.3523,3.3557,3.3551,3.3575,3.3583,3.359,3.3594,3.3609,3.3619,3.3516,3.3516,3.3516,0,0,3.3626,3.3611,3.3619,3.3614,3.3606,3.3615,3.3569,3.3581,3.3587,3.354,3.3558,3.3546,3.3534,3.3561,3.3572,3.3553,3.3622,3.3596,3.3602,3.3602,3.3615,3.3625,3.3633,3.3519,3.3518,3.3518,0,0,3.3695,3.3685,3.3707,3.37,3.3687,3.3667,3.3673,3.3653,3.3643,3.366,3.3624,3.3631,3.3639,3.3631,3.3628,3.3693,3.3665,3.3695,3.3739,3.3754,3.3762,3.3769,3.379,3.3798,3.37,3.37,3.37,0,3.374,3.3753,3.3722,3.3736,3.3735,3.3693,3.3714,3.3708,3.3697,3.3696,3.3676,3.3683,3.3672,3.3695,3.3711,3.3711,3.3715,3.3696,3.3763,3.377,3.3776,3.3796,3.3804,3.3703,3.3703,3.3702,3.3702,0,3.3809,3.3818,3.3838,3.3827,3.3828,3.3846,3.3817,3.3822,3.38,3.3783,3.38,3.3785,3.3783,3.3787,3.3766,3.3807,3.3795,3.377,3.3733,3.379,3.3808,3.3815,3.3708,3.3707,3.3706,3.3705,0,0,3.3915,3.3887,3.3894,3.3888,3.3871,3.3877,3.3893,3.389,3.3893,3.3887,3.3898,3.3905,3.3881,3.3878,3.3856,3.3869,3.3919,3.3841,3.3841,3.3855,3.396,3.3978,3.3988,3.3901,3.3903,3.3904,3.3961,0,3.3978,3.4003,3.3975,3.4005,3.4013,3.3973,3.3986,3.3976,3.396,3.3964,3.3946,3.3951,3.392,3.3917,3.3929,3.3911,3.3939,3.3906,3.3909,3.391,3.3912,3.3997,3.4017,3.4071,3.3968,3.3969,3.397,0,3.4055,3.4052,3.4082,3.4061,3.4063,3.4076,3.407,3.4074,3.4062,3.4049,3.4046,3.4019,3.4032,3.3997,3.4013,3.3991,3.3991,3.3982,3.3983,3.3981,3.3942,3.3995,3.4088,3.4095,3.3981,3.398,3.3979,0,3.4127,3.413,3.4148,3.4145,3.4121,3.4131,3.4121,3.4107,3.4107,3.4102,3.4101,3.4098,3.4096,3.4094,3.4067,3.4044,3.4085,3.4049,3.4074,3.4074,3.4083,3.4082,3.4175,3.4086,3.4086,3.4086,3.4086,0,3.4199,3.4219,3.418,3.4191,3.4212,3.418,3.4201,3.4187,3.4175,3.4182,3.4148,3.4155,3.412,3.4123,3.4102,3.4117,3.4117,3.4106,3.41,3.4108,3.4109,3.4106,3.4101,3.4088,3.4088,3.4087,3.4087,0,3.4282,3.4257,3.4274,3.425,3.4245,3.4261,3.424,3.4249,3.4231,3.424,3.424,3.4212,3.4214,3.4187,3.4184,3.4169,3.4193,3.4181,3.4197,3.4192,3.4218,3.4215,3.431,3.432,3.4228,3.4229,3.4229,0,3.4329,3.4343,3.4321,3.4323,3.4315,3.4319,3.4318,3.4287,3.4288,3.4274,3.4284,3.4283,3.428,3.4285,3.4263,3.426,3.4247,3.428,3.4246,3.4253,3.4245,3.4243,3.4243,3.4287,3.4288,3.4289,3.429,0,3.4414,3.44,3.44,3.4396,3.4396,3.4391,3.4384,3.4387,3.4353,3.4355,3.4357,3.4355,3.4351,3.4349,3.4342,3.4332,3.4305,3.4301,3.4306,3.4314,3.4321,3.4315,3.4214,3.4299,3.4298,3.4297,3.4297,3.4296,3.4478,3.4488,3.4474,3.4474,3.4466,3.4459,3.4466,3.4448,3.4449,3.4443,3.4425,3.4429,3.4415,3.4402,3.4394,3.4396,3.4379,3.4387,3.4389,3.4391,3.4395,3.4323,3.4395,3.4394,3.4394,3.4394,3.4394,0,3.4559,3.4548,3.4549,3.4539,3.454,3.4515,3.4506,3.4507,3.4511,3.45,3.4498,3.4499,3.4497,3.4476,3.4471,3.4477,3.4464,3.4476,3.4475,3.4472,3.4411,3.4406,3.4487,3.4487,3.4487,3.4487,3.4487,3.4486,3.4601,3.4616,3.4601,3.4611,3.4599,3.4602,3.4599,3.4592,3.4583,3.4585,3.4584,3.457,3.4554,3.4548,3.4545,3.4539,3.4537,3.4554,3.4543,3.4486,3.4477,3.4468,3.4463,3.4554,3.4554,3.4603,3.4604,3.4604]}]]